• Processing (Info)

  • MPEC 2023-F64 : 2023 FO1

    The following Minor Planet Electronic Circular may be linked-to from your own Web pages, but must not otherwise be redistributed electronically.

    A form allowing access to any MPEC is at the bottom of this page.


    Read MPEC 2023-F63 Read MPEC 2023-F65


    M.P.E.C. 2023-F64                                Issued 2023 March 20, 06:38 UT
    
         The Minor Planet Electronic Circulars contain information on unusual
             minor planets, routine data on comets and natural satellites,
             and occasional editorial announcements.  They are published
        on behalf of Division F of the International Astronomical Union by the
              Minor Planet Center, Smithsonian Astrophysical Observatory,
                              Cambridge, MA 02138, U.S.A.
    			  
                 Prepared using the Tamkin Foundation Computer Network
    
                                  MPC@CFA.HARVARD.EDU
                URL https://www.minorplanetcenter.net/    ISSN 1523-6714
    
                                    2023 FO1                                 
    
    
    Observations:
         K23F01O* C2023 03 17.26434408 02 22.287+00 46 46.75         20.81wUEF064F51
         K23F01O  C2023 03 17.27639008 02 21.162+00 47 30.39         20.70wUEF064F51
         K23F01O  C2023 03 17.30056808 02 18.909+00 48 57.70         20.85wUEF064F51
         K23F01O KC2023 03 18.05427908 01 19.12 +01 34 39.5          21.0 GVEF064H21
         K23F01O KC2023 03 18.05987408 01 18.60 +01 35 00.3          20.8 GVEF064H21
         K23F01O KC2023 03 18.13043 08 01 12.76 +01 39 18.7          20.8 VqEF064734
         K23F01O KC2023 03 18.13725 08 01 12.00 +01 39 45.7          21.0 VqEF064734
         K23F01O KC2023 03 18.13952 08 01 11.74 +01 39 53.6          21.2 VqEF064734
         K23F01O  C2023 03 18.30758808 00 58.509+01 50 24.76         20.80GVEF064F52
         K23F01O  C2023 03 18.30839308 00 58.435+01 50 27.62         20.52GVEF064F52
         K23F01O 1C2023 03 18.80152 08 00 20.51 +02 20 55.3          20.7 VXEF064033
         K23F01O 1C2023 03 18.80297 08 00 20.39 +02 21 00.6          20.3 VXEF064033
         K23F01O KC2023 03 18.80557408 00 20.15 +02 21 12.5          21.0 GVEF064L01
         K23F01O IC2023 03 18.81017808 00 19.74 +02 21 30.2          20.7 GVEF064L01
         K23F01O KC2023 03 18.81478108 00 19.33 +02 21 47.3          21.1 GVEF064L01
         K23F01O KC2023 03 19.13400 07 59 54.74 +02 41 53.7          20.5 VqEF064734
         K23F01O KC2023 03 19.13816 07 59 54.36 +02 42 09.6          20.5 VqEF064734
         K23F01O KC2023 03 19.14233 07 59 54.01 +02 42 25.6          20.2 VqEF064734
         K23F01O 1C2023 03 19.88129 07 58 58.24 +03 29 24.6          20.6 VXEF064033
         K23F01O 1C2023 03 19.88250 07 58 58.15 +03 29 29.5          20.4 VXEF064033
         K23F01O 1C2023 03 19.88371 07 58 58.04 +03 29 34.0          20.2 VXEF064033
         K23F01O 1C2023 03 19.88508 07 58 57.92 +03 29 38.7          20.5 VXEF064033
    
    Observer details:
    033 Karl Schwarzschild Observatory, Tautenburg.  Observers S. Melnikov, C.
        Hoegner, F. Ludwig, B. Stecklum.  Measurer B. Stecklum.  1.34-m f/3
        Schmidt + CCD.
    734 Farpoint Observatory, Eskridge.  Observers D. Cromer, G. Hug, D. Goodin,
        R. Valentine.  Measurer D. Cromer.  0.70-m f/3.0 reflector + CCD.
    F51 Pan-STARRS 1, Haleakala.  Observers J. Bulger, T. Lowe, A. Schultz, I.
        Smith.  Measurers K. Chambers, S. Chastel, T. de Boer, J. Fairlamb, H.
        Gao, M. Huber, C.-C. Lin, E. Magnier, Y. Ramanjooloo, R. Wainscoat, R.
        Weryk.  1.8-m Ritchey-Chretien + CCD.
    F52 Pan-STARRS 2, Haleakala.  Observers J. Bulger, K. Chambers, T. Dukes, T.
        Lowe, A. Schultz, I. Smith.  Measurers S. Chastel, J. Fairlamb, M. Huber,
        Y. Ramanjooloo, R. Wainscoat, R. Weryk.  1.8-m Ritchey-Chretien + CCD.
    H21 Astronomical Research Observatory, Westfield.  Observer R. Holmes.
        Measurers T. Linder, R. Holmes, L. Horn.  0.76-m f/3.0 astrograph + CCD.
    L01 Visnjan Observatory, Tican.  Observers K. Korlevic, E. Pettarin.  Measurer
        E. Pettarin.  1.0-m f/2.9 reflector + CCD.
    
    Orbital elements:
    2023 FO1                                                 Earth MOID = 0.0562 AU
    Epoch 2023 Feb. 25.0 TT = JDT 2460000.5                 Bell                    
    M 328.34811              (2000.0)            P               Q                  
    n   0.38869948     Peri.   53.90888     -0.59021481     +0.80724610             
    a   1.8594881      Node   179.91474     -0.80349449     -0.58741710             
    e   0.5002542      Incl.   17.89405     -0.07773728     -0.05740104             
    P   2.54           H   21.40          G   0.15           U   9                  
    Residuals in seconds of arc
    230317 F51  0.2+  0.0     230318 F52  0.1+  0.0     230319 734  0.0   0.1+
    230317 F51  0.1+  0.1+    230318 F52  0.1+  0.1-    230319 734  0.1+  0.3+
    230317 F51  0.0   0.1+    230318 033  0.0   0.1+    230319 033  0.2+  0.1-
    230318 H21  0.1-  0.1-    230318 033  0.0   0.0     230319 033  0.3+  0.1+
    230318 H21  0.5-  0.1+    230318 L01  0.4+  0.0     230319 033  0.1+  0.1-
    230318 734 (2.6+  1.9-)   230318 L01  0.2+  0.4+    230319 033  0.0   0.7-
    230318 734  0.3+  0.1-    230318 L01  0.0   0.2+
    230318 734  0.6-  0.6-    230319 734  0.3+  0.0
    
    Ephemeris:
    2023 FO1                 a,e,i = 1.86, 0.50, 18                  q = 0.9293
    Date    TT    R. A. (2000) Decl.     Delta      r    Elong.  Phase     V
    2023 02 18    08 48 42.6 -16 37 13   0.4445  1.3793   146.0    23.6    21.4
    ...
    2023 03 05    08 21 41.2 -09 28 51   0.3491  1.2707   137.4    31.9    21.0
    ...
    2023 03 13    08 08 30.5 -03 15 01   0.3106  1.2142   129.2    39.3    20.8
    ...
    2023 03 19    08 00 05.2 +02 33 42   0.2869  1.1731   122.0    46.0    20.8
    2023 03 20    07 58 50.1 +03 37 23   0.2834  1.1663   120.8    47.2    20.8
    2023 03 21    07 57 37.7 +04 42 36   0.2800  1.1596   119.5    48.4    20.8
    ...
    2023 03 27    07 51 23.4 +11 45 18   0.2617  1.1205   111.6    55.9    20.8
    ...
    2023 04 04    07 45 35.2 +22 26 19   0.2433  1.0717   100.6    66.5    20.8
    ...
    2023 04 19    07 38 49.1 +45 30 42   0.2267  0.9946    81.1    85.9    21.2
    
    M. P. C. Staff               (C) Copyright 2023 MPC           M.P.E.C. 2023-F64
    


    Read MPEC 2023-F63 Read MPEC 2023-F65


    MPEC number:

    Enter an MPEC number in one of the following forms:

    • 1997-B01 (the full form)
    • J97B01 (the packed version of the full form)
    • B01 (the abbreviated form)